| time (UTC) | temp F | wind direction | speed knots | gust knots | rain 1hr in | rain 24hr in | rain mn in | humidity % | barometer mb |
| 20260504002513 | 72 | 26 | 3.5 | 8.7 | 0.00 | 0.00 | 0.00 | 45 | 1008.6 |
| 20260504002013 | 72 | 9 | 3.5 | 10.4 | 0.00 | 0.00 | 0.00 | 45 | 1008.6 |
| 20260504001512 | 72 | 58 | 3.5 | 12.2 | 0.00 | 0.00 | 0.00 | 46 | 1008.6 |
| 20260504001012 | 71 | 27 | 3.5 | 12.2 | 0.00 | 0.00 | 0.00 | 47 | 1008.7 |
| 20260504000513 | 71 | 12 | 3.5 | 9.6 | 0.00 | 0.00 | 0.00 | 47 | 1008.7 |
| 20260504000011 | 71 | 37 | 4.3 | 10.4 | 0.00 | 0.00 | 0.00 | 47 | 1008.7 |
| 20260503235509 | 71 | 38 | 3.5 | 10.4 | 0.00 | 0.00 | 0.00 | 48 | 1008.8 |
| 20260503235009 | 71 | 59 | 1.7 | 7.8 | 0.00 | 0.00 | 0.00 | 49 | 1008.8 |
| 20260503234510 | 71 | 75 | 1.7 | 7.8 | 0.00 | 0.00 | 0.00 | 49 | 1008.9 |
| 20260503234008 | 70 | 10 | 2.6 | 7.8 | 0.00 | 0.00 | 0.00 | 51 | 1008.9 |
| 20260503233506 | 70 | 5 | 1.7 | 7.8 | 0.00 | 0.00 | 0.00 | 52 | 1009.0 |
| 20260503233005 | 70 | 57 | 1.7 | 8.7 | 0.00 | 0.00 | 0.00 | 53 | 1009.0 |
| 20260503232505 | 70 | 26 | 2.6 | 8.7 | 0.00 | 0.00 | 0.00 | 54 | 1009.1 |
| 20260503232004 | 69 | 34 | 1.7 | 9.6 | 0.00 | 0.00 | 0.00 | 55 | 1009.2 |
| 20260503231503 | 69 | 25 | 4.3 | 10.4 | 0.00 | 0.00 | 0.00 | 55 | 1009.4 |
| 20260503231002 | 69 | 311 | 2.6 | 10.4 | 0.00 | 0.00 | 0.00 | 56 | 1009.4 |
| 20260503230501 | 69 | 36 | 5.2 | 10.4 | 0.00 | 0.00 | 0.00 | 55 | 1009.5 |
| 20260503230001 | 69 | 38 | 2.6 | 10.4 | 0.00 | 0.00 | 0.00 | 54 | 1009.5 |
| 20260503225600 | 69 | 19 | 3.5 | 9.6 | 0.00 | 0.00 | 0.00 | 55 | 1009.6 |
| 20260503225501 | 69 | 5 | 4.3 | 9.6 | 0.00 | 0.00 | 0.00 | 55 | 1009.6 |
| 20260503225102 | 69 | 12 | 2.6 | 7.8 | 0.00 | 0.00 | 0.00 | 56 | 1009.6 |
| 20260503224600 | 69 | 94 | 2.6 | 9.6 | 0.00 | 0.00 | 0.00 | 56 | 1009.8 |
| 20260503224059 | 68 | 15 | 2.6 | 9.6 | 0.00 | 0.00 | 0.00 | 57 | 1009.9 |
| 20260503223559 | 69 | 9 | 4.3 | 9.6 | 0.00 | 0.00 | 0.00 | 57 | 1010.0 |
| 20260503223058 | 69 | 341 | 2.6 | 8.7 | 0.00 | 0.00 | 0.00 | 56 | 1010.0 |
| 20260503222557 | 69 | 24 | 3.5 | 10.4 | 0.00 | 0.00 | 0.00 | 56 | 1010.0 |
| 20260503222056 | 69 | 34 | 4.3 | 11.3 | 0.00 | 0.00 | 0.00 | 56 | 1010.1 |
| 20260503221556 | 69 | 51 | 4.3 | 11.3 | 0.00 | 0.00 | 0.00 | 55 | 1010.3 |
| 20260503221057 | 69 | 5 | 4.3 | 11.3 | 0.00 | 0.00 | 0.00 | 55 | 1010.3 |
| 20260503220554 | 69 | 355 | 3.5 | 10.4 | 0.00 | 0.00 | 0.00 | 54 | 1010.4 |
| 20260503220056 | 69 | 344 | 4.3 | 10.4 | 0.00 | 0.00 | 0.00 | 53 | 1010.5 |
| 20260503215553 | 69 | 20 | 4.3 | 10.4 | 0.00 | 0.00 | 0.00 | 53 | 1010.5 |
| 20260503215053 | 69 | 23 | 1.7 | 10.4 | 0.00 | 0.00 | 0.00 | 54 | 1010.5 |
| 20260503214557 | 69 | 5 | 5.2 | 8.7 | 0.00 | 0.00 | 0.00 | 54 | 1010.5 |
| 20260503214059 | 69 | 61 | 3.5 | 8.7 | 0.00 | 0.00 | 0.00 | 58 | 1010.5 |
| 20260503213553 | 68 | 19 | 3.5 | 11.3 | 0.00 | 0.00 | 0.00 | 60 | 1010.6 |
| 20260503213123 | 68 | 338 | 3.5 | 11.3 | 0.00 | 0.00 | 0.00 | 60 | 1010.6 |
| 20260503212554 | 68 | 17 | 1.7 | 9.6 | 0.00 | 0.00 | 0.00 | 61 | 1010.6 |
| 20260503212054 | 68 | 344 | 0.9 | 9.6 | 0.00 | 0.00 | 0.00 | 60 | 1010.6 |
| 20260503211617 | 68 | 350 | 4.3 | 9.6 | 0.00 | 0.00 | 0.00 | 61 | 1010.7 |
| 20260503211051 | 69 | 49 | 2.6 | 8.7 | 0.00 | 0.00 | 0.00 | 60 | 1010.7 |
| 20260503210550 | 69 | 360 | 1.7 | 8.7 | 0.00 | 0.00 | 0.00 | 60 | 1010.8 |
| 20260503210050 | 69 | 49 | 3.5 | 8.7 | 0.00 | 0.00 | 0.00 | 58 | 1010.8 |
| 20260503205550 | 70 | 355 | 0.9 | 7.8 | 0.00 | 0.00 | 0.00 | 58 | 1010.9 |
| 20260503205049 | 70 | 51 | 1.7 | 7.0 | 0.00 | 0.00 | 0.00 | 59 | 1010.8 |
| 20260503204602 | 69 | 308 | 0.0 | 9.6 | 0.00 | 0.00 | 0.00 | 60 | 1010.9 |
| 20260503204047 | 69 | 355 | 0.9 | 9.6 | 0.00 | 0.00 | 0.00 | 61 | 1011.0 |
| 20260503203548 | 68 | 341 | 0.0 | 7.0 | 0.00 | 0.00 | 0.00 | 61 | 1011.1 |
| 20260503203049 | 68 | 5 | 0.0 | 6.1 | 0.00 | 0.00 | 0.00 | 62 | 1011.1 |
| 20260503202547 | 68 | 34 | 0.0 | 6.1 | 0.00 | 0.00 | 0.00 | 62 | 1011.1 |
| 20260503202048 | 68 | 11 | 0.0 | 7.8 | 0.00 | 0.00 | 0.00 | 63 | 1011.2 |
| 20260503201545 | 67 | 5 | 1.7 | 7.8 | 0.00 | 0.00 | 0.00 | 65 | 1011.2 |
| 20260503201044 | 68 | 49 | 0.9 | 7.8 | 0.00 | 0.00 | 0.00 | 64 | 1011.3 |
| 20260503200545 | 69 | 342 | 2.6 | 7.8 | 0.00 | 0.00 | 0.00 | 63 | 1011.4 |
| 20260503200044 | 70 | 5 | 1.7 | 7.0 | 0.00 | 0.00 | 0.00 | 61 | 1011.4 |
| 20260503195542 | 69 | 360 | 0.0 | 7.0 | 0.00 | 0.00 | 0.00 | 63 | 1011.5 |
| 20260503195041 | 68 | 26 | 0.9 | 5.2 | 0.00 | 0.00 | 0.00 | 63 | 1011.5 |
| 20260503194541 | 68 | 44 | 1.7 | 6.1 | 0.00 | 0.00 | 0.00 | 65 | 1011.7 |
| 20260503194040 | 67 | 355 | 0.0 | 6.1 | 0.00 | 0.00 | 0.00 | 65 | 1011.7 |
| 20260503193540 | 68 | 31 | 2.6 | 6.1 | 0.00 | 0.00 | 0.00 | 64 | 1011.8 |
| 20260503193040 | 68 | 10 | 1.7 | 6.1 | 0.00 | 0.00 | 0.00 | 64 | 1011.8 |
| 20260503192537 | 68 | 336 | 0.0 | 5.2 | 0.00 | 0.00 | 0.00 | 64 | 1011.9 |
| 20260503192036 | 68 | 355 | 0.0 | 6.1 | 0.00 | 0.00 | 0.00 | 66 | 1011.9 |
| 20260503191553 | 67 | 360 | 0.9 | 6.1 | 0.00 | 0.00 | 0.00 | 65 | 1011.9 |
| 20260503191035 | 67 | 355 | 0.0 | 5.2 | 0.00 | 0.00 | 0.00 | 64 | 1012.0 |
| 20260503190535 | 67 | 348 | 0.9 | 5.2 | 0.00 | 0.00 | 0.00 | 66 | 1012.1 |
| 20260503190037 | 68 | 12 | 0.0 | 0.0 | 0.00 | 0.00 | 0.00 | 66 | 1012.1 |
| 20260503185537 | 67 | 21 | 0.0 | 0.0 | 0.00 | 0.00 | 0.00 | 66 | 1012.2 |
| 20260503185037 | 67 | 14 | 0.0 | 6.1 | 0.00 | 0.00 | 0.00 | 67 | 1012.3 |
| 20260503184534 | 67 | 360 | 0.0 | 6.1 | 0.00 | 0.00 | 0.00 | 66 | 1012.3 |
| 20260503184034 | 67 | 360 | 0.9 | 4.3 | 0.00 | 0.00 | 0.00 | 66 | 1012.3 |
| 20260503183529 | 66 | 5 | 0.0 | 3.5 | 0.00 | 0.00 | 0.00 | 69 | 1012.4 |
| 20260503183039 | 65 | 57 | 0.0 | 4.3 | 0.00 | 0.00 | 0.00 | 69 | 1012.4 |
| 20260503182528 | 65 | 20 | 0.0 | 4.3 | 0.00 | 0.00 | 0.00 | 69 | 1012.5 |
| 20260503182030 | 65 | 12 | 0.9 | 4.3 | 0.00 | 0.00 | 0.00 | 69 | 1012.5 |
| 20260503181527 | 65 | 60 | 0.9 | 5.2 | 0.00 | 0.00 | 0.00 | 70 | 1012.5 |
| 20260503181027 | 65 | 18 | 1.7 | 5.2 | 0.00 | 0.00 | 0.00 | 70 | 1012.5 |
| 20260503180527 | 65 | 11 | 0.0 | 5.2 | 0.00 | 0.00 | 0.00 | 71 | 1012.5 |
| 20260503180031 | 64 | 18 | 2.6 | 7.0 | 0.00 | 0.00 | 0.00 | 71 | 1012.5 |
| 20260503175526 | 64 | 13 | 2.6 | 7.0 | 0.00 | 0.00 | 0.00 | 71 | 1012.5 |
| 20260503175026 | 63 | 26 | 2.6 | 5.2 | 0.00 | 0.00 | 0.00 | 72 | 1012.6 |
| 20260503174536 | 63 | 9 | 2.6 | 7.0 | 0.00 | 0.00 | 0.00 | 73 | 1012.7 |
| 20260503174026 | 63 | 360 | 1.7 | 7.0 | 0.00 | 0.00 | 0.00 | 73 | 1012.7 |
| 20260503173526 | 63 | 323 | 1.7 | 7.8 | 0.00 | 0.00 | 0.00 | 72 | 1012.7 |
| 20260503173026 | 63 | 51 | 3.5 | 7.8 | 0.00 | 0.00 | 0.00 | 72 | 1012.7 |
| 20260503172525 | 63 | 355 | 0.9 | 7.0 | 0.00 | 0.00 | 0.00 | 72 | 1012.8 |
| 20260503172025 | 63 | 10 | 0.0 | 6.1 | 0.00 | 0.00 | 0.00 | 72 | 1012.7 |
| 20260503171529 | 63 | 15 | 2.6 | 6.1 | 0.00 | 0.00 | 0.00 | 72 | 1012.8 |
| 20260503171029 | 63 | 340 | 1.7 | 6.1 | 0.00 | 0.00 | 0.00 | 73 | 1012.8 |
| 20260503170525 | 62 | 116 | 1.7 | 9.6 | 0.00 | 0.00 | 0.00 | 74 | 1012.8 |
| 20260503150526 | 61 | 24 | 0.0 | 0.0 | 0.00 | 0.00 | 0.00 | 75 | 1013.0 |
| 20260503131016 | 60 | 40 | 1.7 | 3.5 | 0.00 | 0.00 | 0.00 | 70 | 1012.5 |
| 20260503130518 | 59 | 94 | 1.7 | 4.3 | 0.00 | 0.00 | 0.00 | 71 | 1012.5 |
| 20260503110511 | 56 | 142 | 0.0 | 1.7 | 0.00 | 0.00 | 0.00 | 81 | 1012.8 |
| 20260503090106 | 58 | 138 | 0.0 | 1.7 | 0.00 | 0.00 | 0.00 | 74 | 1012.9 |
| 20260503081557 | 60 | 138 | 0.0 | 1.7 | 0.00 | 0.00 | 0.00 | 67 | 1012.8 |
| 20260503081049 | 60 | 138 | 0.0 | 2.6 | 0.00 | 0.00 | 0.00 | 66 | 1012.8 |
| 20260503080551 | 60 | 138 | 0.9 | 2.6 | 0.00 | 0.00 | 0.00 | 65 | 1012.8 |
| 20260503072543 | 63 | 116 | 0.0 | 1.7 | 0.00 | 0.00 | 0.00 | 57 | 1012.7 |
| 20260503072041 | 63 | 117 | 0.0 | 1.7 | 0.00 | 0.00 | 0.00 | 59 | 1012.6 |
| 20260503071602 | 63 | 113 | 0.0 | 0.9 | 0.00 | 0.00 | 0.00 | 58 | 1012.7 |
| 20260503071039 | 63 | 113 | 0.0 | 1.7 | 0.00 | 0.00 | 0.00 | 57 | 1012.6 |
| 20260503070538 | 64 | 113 | 0.0 | 1.7 | 0.00 | 0.00 | 0.00 | 59 | 1012.6 |
| 20260503055036 | 67 | 89 | 0.0 | 2.6 | 0.00 | 0.00 | 0.00 | 49 | 1012.5 |
| 20260503054551 | 68 | 89 | 0.0 | 4.3 | 0.00 | 0.00 | 0.00 | 49 | 1012.5 |
| 20260503054034 | 68 | 92 | 0.9 | 4.3 | 0.00 | 0.00 | 0.00 | 49 | 1012.5 |
| 20260503053535 | 68 | 69 | 0.0 | 5.2 | 0.00 | 0.00 | 0.00 | 49 | 1012.5 |
| 20260503053034 | 68 | 44 | 0.9 | 5.2 | 0.00 | 0.00 | 0.00 | 48 | 1012.5 |
| 20260503052533 | 68 | 58 | 0.0 | 3.5 | 0.00 | 0.00 | 0.00 | 49 | 1012.6 |
| 20260503052033 | 68 | 28 | 0.9 | 3.5 | 0.00 | 0.00 | 0.00 | 49 | 1012.7 |
| 20260503051544 | 68 | 76 | 0.0 | 6.1 | 0.00 | 0.00 | 0.00 | 49 | 1012.6 |
| 20260503051037 | 68 | 82 | 0.9 | 6.1 | 0.00 | 0.00 | 0.00 | 49 | 1012.6 |
| 20260503050533 | 68 | 63 | 0.9 | 4.3 | 0.00 | 0.00 | 0.00 | 49 | 1012.6 |
| 20260503050033 | 68 | 59 | 0.9 | 3.5 | 0.00 | 0.00 | 0.00 | 50 | 1012.5 |
| 20260503045532 | 68 | 28 | 0.0 | 3.5 | 0.00 | 0.00 | 0.00 | 50 | 1012.5 |
| 20260503045034 | 68 | 36 | 0.0 | 3.5 | 0.00 | 0.00 | 0.00 | 51 | 1012.5 |
| 20260503044534 | 68 | 84 | 0.0 | 2.6 | 0.00 | 0.00 | 0.00 | 50 | 1012.4 |
| 20260503044032 | 68 | 45 | 0.0 | 4.3 | 0.00 | 0.00 | 0.00 | 50 | 1012.4 |
| 20260503043532 | 68 | 45 | 1.7 | 4.3 | 0.00 | 0.00 | 0.00 | 50 | 1012.3 |
| 20260503043032 | 68 | 5 | 0.9 | 5.2 | 0.00 | 0.00 | 0.00 | 51 | 1012.3 |
| 20260503042530 | 68 | 62 | 1.7 | 5.2 | 0.00 | 0.00 | 0.00 | 51 | 1012.3 |
| 20260503042030 | 67 | 11 | 1.7 | 4.3 | 0.00 | 0.00 | 0.00 | 52 | 1012.2 |
| 20260503041533 | 67 | 324 | 0.0 | 4.3 | 0.00 | 0.00 | 0.00 | 52 | 1012.1 |
| 20260503041030 | 67 | 44 | 1.7 | 4.3 | 0.00 | 0.00 | 0.00 | 53 | 1012.0 |
| 20260503040534 | 67 | 31 | 0.9 | 6.1 | 0.00 | 0.00 | 0.00 | 53 | 1012.1 |
| 20260503040029 | 67 | 344 | 2.6 | 6.1 | 0.00 | 0.00 | 0.00 | 54 | 1011.9 |
| 20260503035533 | 67 | 45 | 2.6 | 6.1 | 0.00 | 0.00 | 0.00 | 55 | 1011.9 |
| 20260503035030 | 67 | 110 | 1.7 | 6.1 | 0.00 | 0.00 | 0.00 | 55 | 1011.8 |
| 20260503034529 | 67 | 91 | 0.9 | 5.2 | 0.00 | 0.00 | 0.00 | 56 | 1011.8 |
| 20260503034029 | 67 | 130 | 1.7 | 7.8 | 0.00 | 0.00 | 0.00 | 56 | 1011.8 |
| 20260503033529 | 67 | 77 | 2.6 | 8.7 | 0.00 | 0.00 | 0.00 | 57 | 1011.7 |
| 20260503033029 | 66 | 39 | 1.7 | 5.2 | 0.00 | 0.00 | 0.00 | 58 | 1011.7 |
| 20260503032527 | 66 | 138 | 1.7 | 6.1 | 0.00 | 0.00 | 0.00 | 60 | 1011.6 |
| 20260503032028 | 65 | 89 | 0.0 | 2.6 | 0.00 | 0.00 | 0.00 | 61 | 1011.7 |
| 20260503031532 | 65 | 126 | 0.0 | 3.5 | 0.00 | 0.00 | 0.00 | 62 | 1011.6 |
| 20260503031028 | 65 | 12 | 0.0 | 3.5 | 0.00 | 0.00 | 0.00 | 62 | 1011.5 |
| 20260503030527 | 66 | 333 | 0.0 | 7.8 | 0.00 | 0.00 | 0.00 | 62 | 1011.5 |
| 20260503030033 | 66 | 348 | 0.9 | 7.8 | 0.00 | 0.00 | 0.00 | 62 | 1011.5 |
| 20260503025527 | 66 | 333 | 1.7 | 8.7 | 0.00 | 0.00 | 0.00 | 61 | 1011.5 |
| 20260503025027 | 66 | 11 | 2.6 | 7.8 | 0.00 | 0.00 | 0.00 | 61 | 1011.5 |
| 20260503024532 | 66 | 19 | 0.0 | 5.2 | 0.00 | 0.00 | 0.00 | 62 | 1011.5 |
| 20260503024027 | 66 | 360 | 0.0 | 7.0 | 0.00 | 0.00 | 0.00 | 62 | 1011.5 |
| 20260503023526 | 66 | 327 | 1.7 | 7.8 | 0.00 | 0.00 | 0.00 | 61 | 1011.5 |
| 20260503023026 | 67 | 56 | 1.7 | 7.0 | 0.00 | 0.00 | 0.00 | 61 | 1011.5 |
| 20260503022525 | 67 | 11 | 1.7 | 7.8 | 0.00 | 0.00 | 0.00 | 62 | 1011.4 |
| 20260503022026 | 66 | 64 | 1.7 | 7.8 | 0.00 | 0.00 | 0.00 | 62 | 1011.5 |
| 20260503021525 | 66 | 355 | 0.0 | 9.6 | 0.00 | 0.00 | 0.00 | 62 | 1011.5 |
| 20260503021026 | 66 | 61 | 2.6 | 8.7 | 0.00 | 0.00 | 0.00 | 62 | 1011.5 |
| 20260503020529 | 66 | 308 | 1.7 | 7.8 | 0.00 | 0.00 | 0.00 | 63 | 1011.6 |
| 20260503020025 | 67 | 331 | 0.9 | 7.0 | 0.00 | 0.00 | 0.00 | 62 | 1011.5 |
| 20260503015525 | 67 | 5 | 2.6 | 7.8 | 0.00 | 0.00 | 0.00 | 61 | 1011.6 |
| 20260503015025 | 68 | 43 | 3.5 | 9.6 | 0.00 | 0.00 | 0.00 | 60 | 1011.7 |
| 20260503014524 | 68 | 351 | 1.7 | 9.6 | 0.00 | 0.00 | 0.00 | 60 | 1011.7 |
| 20260503014024 | 68 | 355 | 2.6 | 7.0 | 0.00 | 0.00 | 0.00 | 59 | 1011.7 |
| 20260503013523 | 69 | 295 | 0.0 | 7.8 | 0.00 | 0.00 | 0.00 | 59 | 1011.7 |
| 20260503013033 | 69 | 348 | 0.9 | 8.7 | 0.00 | 0.00 | 0.00 | 59 | 1011.8 |
| 20260503012525 | 69 | 329 | 4.3 | 8.7 | 0.00 | 0.00 | 0.00 | 58 | 1011.8 |
| 20260503012026 | 69 | 15 | 2.6 | 7.8 | 0.00 | 0.00 | 0.00 | 58 | 1011.8 |
| 20260503011522 | 69 | 13 | 2.6 | 8.7 | 0.00 | 0.00 | 0.00 | 57 | 1011.8 |
| 20260503011025 | 69 | 355 | 1.7 | 8.7 | 0.00 | 0.00 | 0.00 | 57 | 1011.8 |
| 20260503010520 | 68 | 336 | 2.6 | 9.6 | 0.00 | 0.00 | 0.00 | 57 | 1011.8 |
| 20260503010019 | 68 | 53 | 3.5 | 9.6 | 0.00 | 0.00 | 0.00 | 57 | 1011.8 |
| 20260503005518 | 68 | 10 | 2.6 | 8.7 | 0.00 | 0.00 | 0.00 | 56 | 1011.9 |
| 20260503005018 | 68 | 355 | 1.7 | 7.8 | 0.00 | 0.00 | 0.00 | 57 | 1011.9 |
| 20260503004516 | 68 | 325 | 3.5 | 7.8 | 0.00 | 0.00 | 0.00 | 57 | 1012.0 |
| 20260503004016 | 67 | 344 | 0.9 | 8.7 | 0.00 | 0.00 | 0.00 | 58 | 1012.0 |
| 20260503003516 | 67 | 5 | 4.3 | 8.7 | 0.00 | 0.00 | 0.00 | 58 | 1012.0 |
| 20260503003022 | 67 | 325 | 3.5 | 8.7 | 0.00 | 0.00 | 0.00 | 58 | 1012.0 |